• In Latvia
  • List of Countries
  • For 7 days
  • Water Temperature
  • Satellite Maps
  • Weather Map
  • Weather Widgets
  • user-avatar
    Login

    Hourly Weather Klagenfurt

    Today, 21 August, Monday

    Time Temperature Precipitation Wind Pressure Humidity
    00:00 +10°C° 0 mm 1 mps 694 mmHg 79%
    01:00 +10°C° 0 mm 1 mps 694 mmHg 81%
    02:00 +9°C° 0 mm 1 mps 694 mmHg 82%
    03:00 +9°C° 0 mm 1 mps 693 mmHg 84%
    04:00 +8°C° 0 mm 1 mps 693 mmHg 85%
    05:00 +10°C° 0 mm 1 mps 693 mmHg 80%
    06:00 +11°C° 0 mm 1 mps 694 mmHg 76%
    07:00 +12°C° 0 mm 1 mps 694 mmHg 71%
    08:00 +15°C° 0 mm 1 mps 694 mmHg 62%
    09:00 +18°C° 0 mm 1 mps 695 mmHg 53%
    10:00 +21°C° 0 mm 1 mps 695 mmHg 43%
    11:00 +21°C° 0 mm 1 mps 695 mmHg 40%
    12:00 +22°C° 0 mm 1 mps 695 mmHg 38%
    13:00 +23°C° 0 mm 1 mps 695 mmHg 35%
    14:00 +23°C° 0 mm 1 mps 695 mmHg 36%
    15:00 +23°C° 0 mm 1 mps 694 mmHg 37%
    16:00 +22°C° 0 mm 1 mps 694 mmHg 39%
    17:00 +20°C° 0 mm 1 mps 694 mmHg 48%
    18:00 +18°C° 0 mm 1 mps 694 mmHg 57%
    19:00 +14°C° 0 mm 1 mps 693 mmHg 66%
    20:00 +13°C° 0 mm 1 mps 694 mmHg 69%
    21:00 +12°C° 0 mm 1 mps 694 mmHg 72%
    22:00 +11°C° 0 mm 1 mps 694 mmHg 74%
    23:00 +11°C° 0 mm 1 mps 694 mmHg 76%

    Tomorrow, 22 August, Tuesday

    Time Temperature Precipitation Wind Pressure Humidity
    00:00 +10°C° 0 mm 1 mps 694 mmHg 77%
    01:00 +10°C° 0 mm 1 mps 694 mmHg 79%
    02:00 +10°C° 0 mm 1 mps 694 mmHg 80%
    03:00 +9°C° 0 mm 1 mps 694 mmHg 82%
    04:00 +9°C° 0 mm 1 mps 694 mmHg 83%
    05:00 +10°C° 0 mm 1 mps 694 mmHg 79%
    06:00 +11°C° 0 mm 0 mps 694 mmHg 75%
    07:00 +12°C° 0 mm 0 mps 694 mmHg 71%
    08:00 +15°C° 0 mm 0 mps 695 mmHg 62%
    09:00 +17°C° 0 mm 0 mps 695 mmHg 54%
    10:00 +22°C° 0 mm 1 mps 695 mmHg 46%
    11:00 +23°C° 0 mm 1 mps 695 mmHg 44%
    12:00 +24°C° 0 mm 1 mps 695 mmHg 42%
    13:00 +25°C° 0 mm 1 mps 694 mmHg 40%
    14:00 +24°C° 0 mm 1 mps 694 mmHg 41%
    15:00 +24°C° 0 mm 1 mps 693 mmHg 43%
    16:00 +24°C° 0 mm 1 mps 693 mmHg 45%
    17:00 +21°C° 0 mm 1 mps 692 mmHg 55%
    18:00 +19°C° 0 mm 1 mps 692 mmHg 65%
    19:00 +16°C° 0 mm 1 mps 692 mmHg 76%
    20:00 +15°C° 0 mm 1 mps 692 mmHg 80%
    21:00 +14°C° 0 mm 1 mps 692 mmHg 83%
    22:00 +13°C° 0 mm 1 mps 692 mmHg 87%
    23:00 +12°C° 0 mm 1 mps 692 mmHg 88%

    Day after tomorrow, 23 August, Wednesday

    Time Temperature Precipitation Wind Pressure Humidity
    00:00 +12°C° 0 mm 1 mps 692 mmHg 89%
    01:00 +12°C° 0 mm 1 mps 692 mmHg 89%
    02:00 +11°C° 0 mm 1 mps 691 mmHg 90%
    03:00 +11°C° 0 mm 1 mps 691 mmHg 90%
    04:00 +11°C° 0 mm 1 mps 691 mmHg 90%
    05:00 +12°C° 0 mm 1 mps 692 mmHg 85%
    06:00 +13°C° 0 mm 1 mps 692 mmHg 81%
    07:00 +14°C° 0 mm 1 mps 693 mmHg 76%
    08:00 +18°C° 0 mm 1 mps 693 mmHg 68%
    09:00 +20°C° 0 mm 1 mps 694 mmHg 59%
    10:00 +22°C° 0 mm 1 mps 694 mmHg 50%
    11:00 +23°C° 0 mm 1 mps 694 mmHg 48%
    12:00 +25°C° 0 mm 1 mps 694 mmHg 45%
    13:00 +26°C° 0 mm 1 mps 694 mmHg 42%
    14:00 +25°C° 0 mm 1 mps 694 mmHg 44%
    15:00 +25°C° 0 mm 1 mps 693 mmHg 45%
    16:00 +25°C° 0 mm 1 mps 693 mmHg 46%
    17:00 +23°C° 0 mm 1 mps 693 mmHg 56%
    18:00 +20°C° 0 mm 1 mps 692 mmHg 66%
    19:00 +18°C° 0 mm 1 mps 692 mmHg 77%
    20:00 +16°C° 0 mm 1 mps 692 mmHg 79%
    21:00 +15°C° 0 mm 1 mps 692 mmHg 82%
    22:00 +14°C° 0 mm 1 mps 692 mmHg 85%
    23:00 +14°C° 0 mm 1 mps 692 mmHg 85%

    24 August, Thursday

    Time Temperature Precipitation Wind Pressure Humidity
    00:00 +14°C° 0 mm 1 mps 692 mmHg 86%
    01:00 +13°C° 0 mm 1 mps 692 mmHg 87%
    02:00 +13°C° 0 mm 1 mps 692 mmHg 87%
    03:00 +13°C° 0 mm 1 mps 692 mmHg 88%
    04:00 +13°C° 0 mm 1 mps 692 mmHg 88%
    05:00 +14°C° 0 mm 1 mps 692 mmHg 84%
    06:00 +14°C° 0 mm 0 mps 692 mmHg 80%
    07:00 +16°C° 0 mm 0 mps 693 mmHg 75%
    08:00 +19°C° 0 mm 0 mps 693 mmHg 66%
    09:00 +24°C° 0 mm 1 mps 694 mmHg 56%
    10:00 +27°C° 0 mm 1 mps 694 mmHg 46%
    11:00 +27°C° 0 mm 1 mps 694 mmHg 44%
    12:00 +28°C° 0 mm 1 mps 694 mmHg 41%
    13:00 +29°C° 0 mm 1 mps 694 mmHg 39%
    14:00 +28°C° 0 mm 1 mps 694 mmHg 41%
    15:00 +28°C° 0 mm 2 mps 694 mmHg 43%
    16:00 +27°C° 0 mm 2 mps 693 mmHg 45%
    17:00 +25°C° 0 mm 1 mps 693 mmHg 56%
    18:00 +23°C° 0 mm 1 mps 693 mmHg 66%
    19:00 +20°C° 0 mm 1 mps 692 mmHg 77%
    20:00 +19°C° 0.1 mm 1 mps 692 mmHg 80%
    21:00 +18°C° 0.1 mm 1 mps 692 mmHg 83%
    22:00 +18°C° 0.1 mm 1 mps 692 mmHg 86%
    23:00 +16°C° 0 mm 1 mps 692 mmHg 87%

    25 August, Friday

    Time Temperature Precipitation Wind Pressure Humidity
    00:00 +16°C° 0 mm 1 mps 692 mmHg 88%
    01:00 +15°C° 0 mm 1 mps 692 mmHg 89%
    02:00 +15°C° 0 mm 1 mps 692 mmHg 89%
    03:00 +15°C° 0 mm 1 mps 692 mmHg 89%
    04:00 +15°C° 0 mm 1 mps 691 mmHg 88%
    05:00 +16°C° 0 mm 1 mps 692 mmHg 85%
    06:00 +16°C° 0 mm 0 mps 692 mmHg 82%
    07:00 +17°C° 0 mm 0 mps 692 mmHg 78%
    08:00 +21°C° 0 mm 1 mps 692 mmHg 69%
    09:00 +24°C° 0 mm 1 mps 693 mmHg 60%
    10:00 +26°C° 0 mm 1 mps 693 mmHg 51%
    11:00 +27°C° 0 mm 2 mps 693 mmHg 48%
    12:00 +27°C° 0 mm 2 mps 693 mmHg 45%
    13:00 +28°C° 0 mm 3 mps 693 mmHg 42%
    14:00 +28°C° 0 mm 3 mps 692 mmHg 43%
    15:00 +27°C° 0 mm 3 mps 692 mmHg 44%
    16:00 +27°C° 0 mm 3 mps 692 mmHg 46%
    17:00 +25°C° 0 mm 2 mps 691 mmHg 56%
    18:00 +21°C° 0 mm 2 mps 691 mmHg 66%
    19:00 +20°C° 0 mm 1 mps 691 mmHg 76%
    20:00 +19°C° 0 mm 1 mps 691 mmHg 78%
    21:00 +18°C° 0 mm 1 mps 691 mmHg 81%
    22:00 +18°C° 0 mm 1 mps 691 mmHg 84%
    23:00 +16°C° 0 mm 1 mps 691 mmHg 84%

    26 August, Saturday

    Time Temperature Precipitation Wind Pressure Humidity
    00:00 +16°C° 0 mm 1 mps 691 mmHg 85%
    01:00 +16°C° 0 mm 1 mps 691 mmHg 86%
    02:00 +15°C° 0.1 mm 1 mps 691 mmHg 86%
    03:00 +15°C° 0.1 mm 1 mps 691 mmHg 87%
    04:00 +15°C° 0.1 mm 1 mps 691 mmHg 87%
    05:00 +16°C° 0 mm 1 mps 692 mmHg 85%
    06:00 +16°C° 0 mm 0 mps 692 mmHg 82%
    07:00 +17°C° 0 mm 0 mps 692 mmHg 79%
    08:00 +20°C° 0 mm 0 mps 693 mmHg 69%
    09:00 +24°C° 0 mm 1 mps 693 mmHg 59%
    10:00 +27°C° 0 mm 1 mps 694 mmHg 49%
    11:00 +28°C° 0 mm 1 mps 694 mmHg 46%
    12:00 +28°C° 0 mm 2 mps 693 mmHg 42%
    13:00 +29°C° 0 mm 2 mps 693 mmHg 39%
    14:00 +29°C° 0 mm 2 mps 693 mmHg 40%
    15:00 +29°C° 0 mm 2 mps 693 mmHg 40%
    16:00 +28°C° 0 mm 2 mps 692 mmHg 41%
    17:00 +26°C° 0 mm 2 mps 692 mmHg 51%
    18:00 +23°C° 0 mm 1 mps 692 mmHg 60%
    19:00 +21°C° 0 mm 1 mps 691 mmHg 70%
    20:00 +20°C° 0 mm 1 mps 691 mmHg 73%
    21:00 +19°C° 0 mm 1 mps 691 mmHg 75%
    22:00 +18°C° 0 mm 1 mps 691 mmHg 77%
    23:00 +18°C° 0 mm 1 mps 691 mmHg 77%
    Show more